Theta_e
319 318 316 316 318 317 315 317 318 316 316 315 316 315 315 315 315 313 313 312 313 314 313 313 314 314 314 316 316 316 314 315 317 321 322 323 322 321 321 322 324 327 328 328 328 327 326
320 319 318 317 316 317 315 315 317 317 316 315 316 316 315 314 314 313 312 312 312 312 312 311 312 313 314 316 312 313 315 315 316 320 321 321 322 320 320 318 320 322 325 327 328 328 326
318 320 319 318 316 315 315 314 316 317 317 315 316 316 314 312 313 312 312 314 313 312 312 311 312 313 314 312 312 312 313 316 316 315 315 320 320 321 322 322 319 323 326 325 326 327 329
315 317 318 319 317 315 316 314 315 316 317 316 315 315 314 312 311 312 312 313 314 313 312 311 310 313 313 311 312 311 312 314 314 314 313 313 314 316 321 320 320 324 327 328 325 325 327
310 312 315 317 318 316 314 315 314 316 316 316 315 314 314 313 310 313 312 312 310 310 310 311 310 312 312 311 312 313 312 312 312 312 312 312 313 316 319 322 323 322 326 327 327 324 327
307 309 312 314 315 316 316 315 315 316 315 316 316 314 314 314 310 311 312 313 310 309 311 313 312 311 311 311 312 312 312 312 312 311 312 314 313 316 318 322 323 322 324 325 327 326 326
305 306 308 310 313 317 315 315 315 315 314 315 315 316 314 314 310 310 312 311 310 311 312 312 313 309 311 311 311 312 312 311 312 312 314 313 315 317 316 318 319 318 320 325 325 324 327
304 305 305 308 310 311 315 314 313 314 314 315 315 315 312 314 309 310 312 311 310 310 313 312 312 311 311 311 313 312 311 312 313 314 312 313 316 314 314 316 319 320 321 322 321 324 326
303 304 305 306 308 308 310 315 313 313 314 314 315 315 312 312 309 311 311 310 310 310 311 312 312 312 313 312 313 313 312 312 313 314 313 314 314 313 315 315 318 319 320 320 322 323 325
301 303 304 304 306 307 309 309 314 313 314 314 315 314 313 310 310 310 311 309 311 310 313 313 312 313 312 311 313 312 312 312 313 313 313 313 311 312 315 316 316 318 317 319 321 324 331
301 302 303 304 305 306 308 308 309 314 313 314 315 314 311 307 309 310 311 312 312 310 315 311 312 310 311 312 312 312 311 313 314 313 313 313 313 313 314 315 315 316 315 317 319 323 327
300 301 302 303 305 305 307 306 307 312 314 315 315 314 311 307 311 311 311 310 309 313 312 314 311 313 313 313 313 312 312 312 313 315 314 312 312 313 313 312 313 316 317 318 321 324 330
299 300 302 303 304 305 306 306 306 310 313 314 315 315 311 310 309 310 309 308 311 314 311 315 313 312 312 313 313 313 313 315 316 315 315 316 314 313 313 316 315 315 317 320 324 326 327
298 299 301 302 302 305 306 305 305 306 313 314 315 315 311 310 310 309 308 311 312 311 312 313 313 311 315 312 314 314 313 314 314 312 314 312 309 314 313 314 315 316 316 322 322 327 329
298 299 302 302 302 303 304 305 305 306 313 315 315 315 312 311 310 310 310 312 309 312 315 315 313 315 316 314 312 314 313 314 311 311 310 313 314 313 313 313 314 316 317 315 325 328 331
297 299 300 301 301 302 304 303 303 304 313 315 316 313 310 310 310 308 311 312 311 313 314 314 318 315 315 313 312 315 313 313 312 310 310 313 315 313 313 313 314 317 317 321 321 333 334
297 298 299 300 300 304 303 303 303 309 313 315 313 314 311 310 309 310 312 312 312 312 313 314 316 317 315 312 312 312 311 312 312 312 310 312 314 315 310 318 317 319 323 321 324 325 333
297 298 299 300 300 303 305 305 305 306 311 315 312 317 311 309 313 312 313 312 312 312 312 313 313 315 315 312 312 310 311 310 313 312 313 313 316 318 317 317 319 317 322 321 325 330 328
297 297 298 300 300 303 303 304 306 307 312 312 314 314 310 310 313 314 312 312 312 313 314 315 315 314 313 313 315 311 313 313 312 314 314 313 316 318 321 322 322 322 324 323 323 326 330
297 297 297 299 300 303 303 303 303 305 314 312 314 316 314 312 312 313 314 314 315 312 313 314 316 315 314 312 312 313 312 315 313 314 314 312 318 321 327 328 327 326 323 324 324 328 326
297 296 297 299 301 303 301 303 303 304 314 311 312 315 312 314 313 314 314 315 316 314 312 314 316 316 314 311 311 313 313 314 314 315 314 312 319 318 318 319 324 326 326 322 322 327 327
297 296 297 298 301 302 302 301 302 306 314 312 311 314 312 312 312 313 314 317 317 315 315 319 317 315 314 313 311 312 315 314 316 315 314 314 320 322 327 325 326 328 328 326 325 327 325
297 295 297 298 300 301 302 300 303 305 313 312 311 311 314 317 314 315 315 315 316 316 315 314 317 317 316 316 315 316 312 312 315 315 315 317 321 326 322 327 325 328 327 325 325 324 323
296 295 297 298 300 301 302 301 303 304 307 312 312 311 313 317 316 317 316 315 316 317 317 316 314 315 317 317 315 317 318 313 317 320 315 316 320 323 322 318 322 318 316 322 324 323 321
296 296 296 298 299 301 302 302 302 303 306 311 310 312 314 317 315 315 314 312 316 316 318 318 318 311 313 317 320 323 322 322 318 315 317 317 321 325 324 323 320 319 315 317 320 320 318
296 296 296 298 299 300 302 302 302 303 307 312 309 311 311 314 315 313 311 316 316 316 314 316 309 308 316 317 322 324 323 324 323 322 316 319 319 323 314 319 325 318 315 313 315 320 314
296 296 295 297 299 300 302 301 302 304 307 312 311 310 311 313 313 311 310 310 315 314 315 311 311 314 315 320 324 324 324 319 325 323 324 325 324 320 322 323 319 317 314 312 320 318 312
296 296 296 297 298 300 301 301 302 304 306 312 310 311 311 312 312 311 310 309 313 313 315 312 315 315 318 321 323 324 322 321 320 319 323 324 325 326 324 326 323 313 313 316 313 313 311
296 296 296 297 297 299 301 301 302 303 306 311 309 310 311 311 312 311 311 310 309 313 314 311 315 317 318 321 318 321 320 316 318 325 318 325 322 323 322 323 315 312 313 313 311 311 310
Wind_Speed
21 21 21 20 21 21 22 18 16 15 14 13 11 10 10 8 8 6 6 4 3 3 3 3 2 2 3 5 7 1 7 7 6 11 15 8 6 3 4 4 5 13 14 14 17 18 18
24 23 22 21 23 21 22 22 18 16 14 13 13 12 11 10 9 8 6 6 4 4 3 3 3 2 2 11 10 14 10 3 4 10 14 11 6 6 7 7 10 6 9 16 19 15 11
28 25 23 23 23 24 23 23 20 18 16 14 14 14 12 12 10 9 6 6 5 4 5 3 3 3 6 12 8 3 18 16 10 7 2 18 20 7 4 4 6 8 12 14 17 16 14
32 31 30 23 23 25 24 24 22 19 18 16 15 15 14 12 12 9 7 6 6 6 5 5 3 4 6 7 20 23 7 13 13 10 12 14 7 6 7 5 7 5 6 14 6 8 9
32 32 31 28 24 24 26 25 23 21 19 18 15 14 15 12 11 11 9 8 7 7 6 5 4 5 7 5 16 19 17 6 6 9 14 14 7 4 3 4 3 4 9 8 6 7 6
31 31 32 32 31 27 25 26 23 21 19 19 17 16 16 13 10 10 8 9 6 8 4 6 7 1 6 5 6 20 14 17 7 1 4 4 4 5 1 5 13 9 9 10 8 5 11
32 31 32 34 35 27 27 26 24 23 20 20 18 16 15 15 11 10 9 3 1 2 7 8 8 5 3 5 4 12 17 11 10 3 6 6 7 12 13 14 6 8 10 12 8 10 11
33 32 33 33 35 35 25 28 26 24 21 21 18 17 15 16 12 11 11 4 2 4 5 13 16 15 19 4 4 6 14 9 12 15 6 7 17 14 9 11 10 12 13 20 14 15 11
35 33 32 33 32 34 30 25 27 26 23 21 19 18 17 14 12 14 17 10 5 1 3 6 13 9 13 9 12 9 13 11 11 11 12 17 4 17 14 13 13 16 16 16 16 16 17
35 35 34 33 32 33 28 27 21 26 25 22 19 18 19 17 9 13 7 15 13 5 3 3 3 4 4 4 5 18 21 13 8 17 13 14 19 12 14 17 13 16 16 16 16 11 11
36 35 35 34 34 31 29 28 20 20 27 23 20 21 23 24 8 10 10 14 14 4 4 6 5 2 2 7 6 8 19 16 17 13 11 8 9 16 19 21 14 15 10 12 12 16 14
35 38 34 34 35 30 29 24 28 21 24 25 23 23 24 24 5 12 19 21 8 3 8 6 4 4 3 8 4 1 3 9 2 10 14 17 2 4 11 15 14 2 4 9 9 11 12
36 38 35 35 36 32 26 22 26 22 25 26 26 27 31 21 8 23 24 7 4 4 1 4 4 6 9 7 6 7 4 12 7 5 7 4 11 3 2 3 4 6 5 5 5 8 13
37 38 36 36 38 29 26 22 23 36 27 26 28 29 33 20 19 29 12 3 5 5 4 4 3 7 6 6 7 9 3 6 13 5 3 5 5 12 9 15 7 11 13 6 8 7 8
36 37 38 35 38 35 43 21 27 34 22 26 28 31 25 20 33 30 5 3 6 5 4 4 2 4 4 7 7 9 10 4 7 16 7 6 6 3 5 8 17 7 10 21 6 4 2
36 37 38 37 35 52 14 16 28 33 21 26 20 12 18 32 37 20 3 4 4 2 6 4 7 9 6 8 8 8 9 8 8 16 11 2 5 3 12 12 12 11 10 9 4 5 7
36 37 40 39 44 40 14 11 22 20 19 29 12 5 20 37 26 4 3 6 4 5 7 5 5 4 7 5 7 5 7 6 12 13 17 7 5 3 2 8 17 9 10 8 5 6 2
36 37 39 38 45 37 16 16 24 25 11 31 5 4 28 37 5 2 3 6 3 5 9 10 6 9 6 9 9 5 10 5 7 7 17 10 4 5 14 11 10 15 11 9 5 6 10
36 36 37 38 41 28 27 19 25 22 22 15 6 3 25 27 5 4 3 6 7 8 9 7 8 13 11 8 3 12 6 9 17 10 13 8 4 4 4 6 5 16 15 14 15 11 8
36 36 36 38 40 34 27 27 30 34 37 14 4 4 3 3 0 6 6 8 6 7 14 9 4 10 9 7 10 5 10 4 16 14 15 13 6 7 3 2 5 8 19 12 10 5 3
33 35 36 36 38 37 32 27 29 40 36 9 1 3 4 5 7 5 10 4 8 5 10 8 6 15 6 5 6 5 4 4 12 17 13 4 5 5 13 17 12 11 13 17 22 12 4
31 33 34 34 37 40 29 32 30 35 35 3 4 3 2 5 10 12 9 7 8 6 5 4 8 8 12 10 6 6 7 4 6 11 10 9 4 8 7 8 14 11 13 17 10 5 3
30 31 32 33 36 39 32 31 26 33 22 2 2 2 3 7 9 7 6 12 15 12 11 14 13 8 9 10 9 0 7 6 5 10 8 6 3 5 3 11 7 1 18 9 5 1 4
29 30 31 32 34 34 29 30 25 29 22 3 5 4 3 3 3 7 5 12 17 15 12 7 16 11 4 6 4 7 7 6 6 1 2 6 1 3 4 4 1 4 2 6 8 4 6
27 28 29 31 34 34 29 28 26 27 24 7 4 4 3 2 7 9 11 5 3 4 4 9 5 3 4 4 2 3 0 3 3 5 4 5 3 2 1 2 5 3 2 4 7 7 7
26 27 27 29 31 32 29 28 25 27 23 14 8 7 3 3 4 2 2 1 3 1 2 3 2 1 1 1 3 4 4 3 3 2 4 6 4 3 3 1 3 3 3 2 1 3 3
26 26 27 28 32 31 29 27 24 26 16 15 6 7 3 2 2 1 3 2 2 2 2 1 2 2 2 2 1 3 3 7 5 6 4 4 2 4 1 2 7 5 3 3 3 4 4
26 24 26 28 30 32 29 26 23 26 25 18 5 12 6 2 3 1 2 3 2 2 2 2 2 1 3 4 3 2 3 5 4 5 5 4 5 3 3 2 6 4 2 3 3 2 4
23 24 25 26 29 31 29 28 24 24 23 21 3 15 16 1 2 2 5 7 6 4 3 4 2 5 4 3 3 2 2 3 6 5 3 4 6 5 7 5 2 3 2 1 3 4 3
Wind_Direction
298 295 297 290 292 287 290 283 278 278 280 270 254 254 255 260 267 269 277 279 294 311 335 301 297 244 152 226 248 214 103 83 135 197 213 209 252 230 234 256 296 249 247 247 236 241 256
294 292 291 290 282 284 289 278 278 269 270 276 251 249 251 248 253 263 260 273 275 282 286 302 279 269 211 246 261 232 256 229 149 172 202 217 226 231 275 231 251 292 270 256 250 247 262
325 320 285 286 286 279 281 279 274 268 262 265 255 244 249 250 243 248 252 266 269 268 274 266 279 226 240 229 248 335 231 230 222 271 280 218 232 233 345 300 307 270 273 268 254 247 245
330 338 326 279 282 279 277 274 270 267 260 258 256 244 244 245 235 237 243 257 251 265 277 272 261 204 245 243 259 259 263 228 230 244 259 273 285 280 213 289 327 294 272 248 260 250 253
332 330 331 325 277 275 271 273 267 262 257 254 248 243 242 240 234 233 236 239 247 269 252 235 228 191 260 272 232 241 234 228 233 224 230 251 256 223 277 213 258 255 265 270 284 246 253
331 328 327 328 317 271 269 264 263 257 255 250 247 241 232 231 226 230 229 219 247 279 257 193 251 282 267 233 206 226 226 223 225 295 191 226 211 207 149 203 229 235 233 247 243 228 239
330 326 326 323 323 276 266 260 258 254 253 248 244 237 229 218 220 207 195 172 26 230 203 205 187 218 240 213 184 194 208 215 230 235 225 232 213 215 216 227 225 269 278 271 273 241 221
331 327 323 321 315 321 303 261 254 250 249 242 237 223 219 207 202 194 193 174 208 106 272 228 248 236 256 251 281 212 183 188 204 214 201 252 240 216 220 227 235 244 265 267 286 270 246
330 327 324 321 318 316 318 266 256 249 243 236 228 216 198 195 187 186 194 182 186 326 266 211 228 243 235 235 229 221 182 201 200 203 205 219 180 202 209 222 223 230 230 251 261 293 294
330 329 325 323 316 319 308 318 258 252 239 231 221 208 187 174 177 190 195 215 229 192 275 199 223 261 200 125 261 208 205 186 217 205 207 240 238 244 215 234 215 240 232 248 257 275 260
332 327 326 321 320 310 302 293 310 264 241 227 215 199 187 178 158 165 162 165 175 141 300 149 161 272 346 183 131 212 225 216 214 197 184 207 173 205 223 229 209 252 243 263 253 262 272
330 329 326 324 320 307 300 290 308 267 247 221 208 197 187 186 146 174 140 136 142 105 249 162 140 184 181 195 241 76 257 211 207 239 232 233 79 206 228 230 220 253 310 304 284 277 248
327 330 326 326 326 313 294 285 311 308 246 221 203 197 188 179 171 156 140 133 92 201 168 171 200 191 207 201 219 199 203 203 201 195 203 167 241 250 147 171 224 172 214 235 219 226 234
327 328 329 329 326 314 307 280 300 321 234 220 200 196 186 177 179 154 139 86 187 205 214 120 166 209 214 192 221 217 201 227 204 224 114 181 276 188 185 210 190 190 184 220 205 217 224
329 329 329 334 330 316 319 272 290 314 223 213 190 187 168 179 171 163 138 184 205 206 115 151 139 220 199 213 223 219 222 233 211 201 177 180 239 145 189 183 195 186 203 217 310 259 213
328 328 331 336 331 318 295 296 289 300 226 200 177 141 167 171 170 154 162 207 225 138 126 138 216 196 220 199 196 198 187 196 212 205 202 166 275 183 253 206 223 224 157 185 196 241 207
329 331 331 335 326 332 304 276 292 294 215 190 140 148 162 164 153 164 197 196 213 171 135 182 215 220 243 176 194 207 217 242 199 195 197 180 224 164 103 228 188 185 192 193 215 234 242
332 332 332 332 331 337 315 323 294 315 280 184 140 146 157 152 158 184 186 183 145 190 191 214 242 241 250 191 192 250 214 224 126 146 188 195 231 228 240 235 237 182 198 177 213 177 228
332 333 333 334 333 341 339 334 337 333 265 145 130 110 163 167 178 174 181 217 217 208 201 200 222 218 202 189 205 219 200 242 138 145 169 171 233 277 213 167 193 181 185 206 199 277 271
333 333 333 333 335 346 349 332 328 324 169 153 126 139 137 188 99 179 196 222 217 206 240 231 239 266 247 271 201 242 217 159 158 161 173 168 227 232 283 4 164 201 190 170 209 242 233
330 332 334 334 338 344 354 343 324 331 177 148 153 135 149 157 209 197 190 212 204 209 212 215 230 225 228 241 201 214 203 182 177 177 169 174 261 238 256 246 239 168 188 201 222 242 74
330 332 333 334 339 341 351 351 341 332 182 102 127 143 143 164 194 210 212 196 229 189 222 198 230 199 226 236 214 200 185 179 179 161 155 202 266 298 348 149 177 201 206 203 221 218 141
330 333 334 336 340 342 348 349 324 345 162 116 107 62 138 154 176 177 203 215 226 223 207 229 236 248 274 254 258 353 214 185 203 169 173 172 266 327 353 170 164 157 212 204 215 123 150
331 334 335 335 338 341 342 336 335 343 342 207 149 145 115 164 197 206 246 207 223 210 219 215 223 230 230 323 199 51 22 39 162 46 206 181 148 291 326 20 71 247 21 205 192 198 197
331 333 334 334 336 338 340 341 337 337 356 182 171 130 131 177 198 233 279 271 40 156 247 251 189 191 294 283 119 105 184 332 56 149 269 187 161 314 21 272 278 24 20 135 169 246 195
328 330 330 333 337 339 338 339 336 333 349 172 163 127 109 123 207 174 300 242 181 22 281 224 90 347 79 254 118 192 181 151 226 309 295 125 115 139 35 140 186 240 294 319 130 281 359
327 327 329 331 335 337 338 339 333 338 346 189 173 179 104 157 270 70 240 200 81 143 259 313 156 118 204 129 145 199 169 166 168 186 169 123 115 166 223 331 291 244 297 313 126 237 313
326 326 329 328 331 337 340 335 329 340 347 187 182 189 175 184 266 128 146 169 151 166 202 140 128 226 144 165 207 219 171 191 139 173 170 154 147 148 136 191 268 161 68 156 192 5 68
324 324 325 326 328 333 336 337 333 328 342 185 133 182 202 209 283 263 250 243 215 183 155 185 288 188 162 163 221 154 256 152 148 187 229 172 185 175 184 211 271 47 102 149 138 124 97